Location: Colonia Mina de C?rbuni
(46.1667°N, 22.7167°E)
Time: 07:48:19
(UTC+00:00)

Vanguard 2 - Pass Details

Date: 15 April 2024
Orbit: 552 x 2914 km, 32.9° (Epoch: 24 May)

Event Time Altitude Azimuth Distance (km) Brightness Sun altitude
Rises 02:02:40 0° 233° (SW) 6,505 - -16.4°
Reaches altitude 10° 02:07:07 10° 228° (SW) 5,634 - -15.8°
Exits shadow 02:09:46 16° 223° (SW) 5,144 11.1 -15.4°
Maximum altitude 02:23:06 44° 164° (SSE) 3,560 10.7 -13.4°
Drops below altitude 10° 02:37:01 10° 100° (E) 4,957 12.5 -11.3°
Sets 02:40:37 0° 94° (E) 5,693 13.1 -10.8°
